ARIANE 5 R/B, 41863

Orbit data source: Space-Track

ARIANE 5 R/B, 41863 is space debris originally from a launch on Thu, 17 Nov 2016 UTC launched from the French Guiana (FRGUI). Debris objects in space refer to the collection of defunct objects orbiting the Earth. Examples of debris include non-operational satellites, rocket bodies, and fragments generated from explosions, collisions, or faulty payload assembly.

Loading next visibility...
Identifier
41863, 2016-069E
Orbit
Active
Country
Flag of FRFR
Related business
Manufacturer
ADS/Bremen
Mission
Spacecraft
Bus & Motor
EPS+, AESTUS
Mass
3,057 kg wet, 3,057 kg dry
Launch date (UTC)
2016-11-17 (9 years ago)
Launch vehicle
Unknown
Launch site
French Guiana (FRGUI)
Object type
Payload
Rocket body
Debris
Shape & HBR
Cone + Cyl, 2.7 m
Radar Cross Section
28.860 m², Large (>1 m²)

Expand to show TLE details & history
Last TLE update: 1 day ago

TLE from 1 day ago
0 ARIANE 5 R/B
1 41863U 16069E   25312.27435940  .00000032  00000-0  00000-0 0  9996
2 41863  55.3427 103.5953 0001938   6.5344 353.4452  1.73306614 56805
Epoch: 2025-11-08T06:35Z
TLE epoch observation values (Epoch: 2025-11-08T06:35:04.652Z)
Latitude
-0.00003°
Longitude
-42.90298°
Altitude
22,893.396 km
Speed
3.691 km/s
True Right ascension
06h 54m 17s
True Declination
0° 00' 00"
Sunlit
Object was in daylight at epoch
Visualization orbit readout
Latitude
Unknown
Longitude
Unknown
Altitude
Unknown
Speed
Unknown
Apparent Right ascension
Unknown
Apparent Declination
Unknown
Sunlit
N/A
Visualization observer readout
Local Sidereal Time
09:25:48
Azimuth
Unknown
Elevation
Unknown
Doppler factor
Unknown
Orbital elements
Apogee altitude
22,904.432 km
Perigee altitude
22,893.084 km
Semi-major axis
29,276.895 km
Eccentricity
0.00019
Inclination
55.3427°
RAAN
103.5953°
Arg. of periapsis
6.5344°
True anomaly
353.44266°
Mean anomaly
353.4452°
Eccentric anomaly
353.44393°
Mean motion
0.43327 °/min
Orbital period
830.9 mins
BSTAR
0
Loading maneuver chart data...
Computing Atmospheric mass density...
Loading historical data...
Loading historical data...
Loading historical data...
Loading historical data...
Loading historical data...
Loading historical data...
Loading historical data...
Other satellites on launch #69 in the year 2016 (2016-11-17 UTC)

Documentation

Showing up to 5 results
|